FW5819 Weather Reports


Display with metric or nautical units.
time (UTC)temp
F
wind
direction
speed
MPH
gust
MPH
rain 1hr
in
rain 24hr
in
rain mn
in
humidity
%
barometer
mb
20260510174532 56 15 4.0 9.0 0.00 0.26 0.00 53 1018.4
20260510173038 56 40 3.0 9.0 0.00 0.26 0.00 53 1018.5
20260510171546 56 17 4.0 7.0 0.00 0.26 0.00 57 1018.5
20260510170039 56 342 3.0 9.0 0.00 0.26 0.00 57 1018.4
20260510164534 56 88 3.0 11.0 0.00 0.26 0.00 58 1018.5
20260510163032 56 11 2.0 9.0 0.00 0.26 0.00 54 1018.4
20260510161531 55 350 3.0 8.0 0.00 0.26 0.00 60 1018.3
20260510160033 55 336 4.0 8.0 0.00 0.26 0.00 56 1018.1
20260510154536 55 22 4.0 9.0 0.00 0.26 0.00 59 1017.8
20260510153042 55 318 3.0 9.0 0.00 0.26 0.00 57 1017.8
20260510151536 55 0 0.0 5.0 0.00 0.26 0.00 56 1017.8
20260510150034 54 327 3.0 9.0 0.00 0.26 0.00 56 1017.4
20260510144535 54 24 4.0 10.0 0.00 0.26 0.00 57 1017.4
20260510143037 53 106 3.0 9.0 0.00 0.26 0.00 55 1017.4
20260510141540 53 331 4.0 8.0 0.00 0.26 0.00 56 1017.3
20260510140035 53 37 4.0 9.0 0.00 0.26 0.00 53 1017.5
20260510134532 53 149 1.0 5.0 0.00 0.26 0.00 58 1017.3
20260510133033 53 342 1.0 8.0 0.00 0.26 0.00 60 1017.1
20260510131531 51 333 3.0 12.0 0.00 0.26 0.00 64 1016.9
20260510130047 51 9 3.0 10.0 0.00 0.26 0.00 64 1016.6
20260510124545 51 327 3.0 10.0 0.00 0.26 0.00 66 1016.4
20260510123034 50 11 2.0 6.0 0.00 0.26 0.00 67 1016.1
20260510121542 50 32 2.0 6.0 0.00 0.26 0.00 66 1016.0
20260510120034 49 317 3.0 9.0 0.00 0.26 0.00 66 1015.8
20260510114531 48 344 2.0 5.0 0.00 0.26 0.00 72 1015.6
20260510113039 48 81 2.0 5.0 0.00 0.26 0.00 74 1015.0
20260510111535 48 345 2.0 6.0 0.00 0.26 0.00 77 1014.9
20260510110041 48 41 2.0 6.0 0.00 0.26 0.00 77 1014.5
20260510104534 47 17 2.0 3.0 0.00 0.26 0.00 77 1014.3
20260510103034 47 350 2.0 4.0 0.00 0.26 0.00 78 1013.8
20260510101539 47 17 0.0 3.0 0.00 0.26 0.00 78 1013.6
20260510100035 47 342 1.0 4.0 0.00 0.26 0.00 79 1013.4
20260510094536 48 0 0.0 3.0 0.00 0.26 0.00 81 1013.2
20260510093035 47 24 1.0 5.0 0.00 0.26 0.00 81 1013.0
20260510091556 46 32 1.0 4.0 0.00 0.26 0.00 84 1012.9
20260510090032 46 0 0.0 0.0 0.00 0.26 0.00 85 1012.6
20260510084536 46 0 0.0 0.0 0.00 0.26 0.00 84 1012.3
20260510083045 46 0 0.0 1.0 0.00 0.26 0.00 83 1012.2
20260510081536 47 0 0.0 0.0 0.00 0.26 0.00 83 1011.8
20260510080035 47 0 0.0 1.0 0.00 0.26 0.00 81 1011.7
20260510074535 47 0 0.0 0.0 0.00 0.26 0.00 78 1011.4
20260510073033 48 0 0.0 1.0 0.00 0.26 0.00 76 1011.0
20260510071533 49 0 0.0 1.0 0.00 0.26 0.00 75 1010.8
20260510070036 50 144 0.0 4.0 0.00 0.26 0.00 74 1010.7
20260510064539 51 0 0.0 6.0 0.00 0.26 0.00 72 1010.6
20260510063035 51 5 2.0 9.0 0.00 0.26 0.00 72 1010.7
20260510061536 51 325 2.0 9.0 0.00 0.26 0.00 72 1010.6
20260510060036 52 335 1.0 5.0 0.00 0.26 0.00 73 1010.4
20260510054537 52 38 3.0 8.0 0.00 0.26 0.00 73 1010.1
20260510053035 53 331 4.0 13.0 0.00 0.26 0.00 74 1010.0
20260510051536 56 65 6.0 15.0 0.00 0.26 0.00 80 1009.2
20260510050033 58 294 1.0 4.0 0.00 0.26 0.00 82 1008.6
20260510044535 57 259 1.0 6.0 0.00 0.26 0.00 84 1008.5
20260510043032 58 0 0.0 3.0 0.00 0.26 0.00 83 1007.8
20260510041536 57 250 3.0 8.0 0.00 0.26 0.00 84 1007.8
20260510040038 57 232 2.0 5.0 0.00 0.26 0.00 84 1007.3
20260510034533 57 275 1.0 7.0 0.00 0.28 0.26 83 1007.1
20260510033043 57 234 1.0 7.0 0.00 0.28 0.26 84 1006.9
20260510031540 57 265 1.0 6.0 0.00 0.28 0.26 88 1007.0
20260510030032 56 237 2.0 7.0 0.00 0.28 0.26 89 1007.0
20260510024534 56 206 1.0 8.0 0.00 0.28 0.26 90 1007.1
20260510023036 56 219 2.0 5.0 0.00 0.28 0.26 91 1006.9
20260510021535 56 242 1.0 6.0 0.00 0.28 0.26 92 1006.8
20260510020034 56 215 3.0 10.0 0.00 0.28 0.26 93 1007.0
20260510014532 55 234 0.0 4.0 0.00 0.28 0.26 94 1006.5
20260510013034 55 0 0.0 4.0 0.00 0.28 0.26 93 1006.1
20260510011534 55 225 0.0 3.0 0.00 0.28 0.26 93 1006.1
20260510010035 55 146 0.0 4.0 0.00 0.28 0.26 93 1006.0
20260510004535 55 151 0.0 3.0 0.00 0.28 0.26 93 1005.9
20260510003035 56 284 1.0 6.0 0.00 0.28 0.26 92 1006.0
20260510001532 56 287 2.0 9.0 0.00 0.28 0.26 92 1005.9
20260510000036 56 254 1.0 8.0 0.00 0.28 0.26 92 1005.9
20260509234541 56 279 1.0 7.0 0.02 0.29 0.26 93 1005.9
20260509233038 56 34 1.0 11.0 0.04 0.29 0.26 93 1005.6
20260509231534 55 213 3.0 14.0 0.26 0.29 0.26 92 1005.6
20260509230037 56 265 3.0 12.0 0.26 0.29 0.26 91 1005.5
20260509224545 56 250 3.0 11.0 0.24 0.32 0.24 90 1006.2
20260509223031 57 248 2.0 20.0 0.22 0.30 0.22 85 1005.6
20260509221533 67 292 11.0 24.0 0.00 0.08 0.00 67 1005.3
20260509220034 69 282 5.0 13.0 0.00 0.08 0.00 60 1003.3
20260509214539 70 312 8.0 18.0 0.00 0.09 0.00 58 1003.2
20260509213035 70 225 6.0 22.0 0.00 0.09 0.00 59 1003.1
20260509211534 71 228 5.0 22.0 0.00 0.09 0.00 57 1003.1
20260509210033 72 223 6.0 19.0 0.00 0.09 0.00 56 1003.1
20260509204537 72 296 7.0 17.0 0.00 0.09 0.00 58 1003.4
20260509203040 72 194 8.0 20.0 0.00 0.09 0.00 57 1003.7
20260509201535 72 256 5.0 18.0 0.00 0.09 0.00 61 1003.9
20260509200035 71 213 8.0 19.0 0.00 0.09 0.00 61 1004.2
20260509194533 70 243 7.0 20.0 0.00 0.09 0.00 62 1004.7
20260509193038 70 229 7.0 17.0 0.00 0.09 0.00 61 1004.6
20260509191535 69 247 7.0 16.0 0.00 0.09 0.00 62 1004.8
20260509190035 70 233 5.0 18.0 0.00 0.09 0.00 63 1004.8
20260509184543 69 213 6.0 15.0 0.00 0.09 0.00 64 1005.0
20260509183039 69 205 9.0 17.0 0.00 0.09 0.00 63 1005.2
20260509181540 69 159 4.0 16.0 0.00 0.09 0.00 64 1005.4
20260509180105 68 222 7.0 17.0 0.00 0.09 0.00 65 1005.4